Ouarzazate, Morocco

1:35 PM WET on January 17, 2018 (GMT +0000)
Ouarzazate

Weather History for GMMZ - June, 2014

Change the Weather History Date:

Tuesday, June 10, 2014

  Actual Average Record
Temperature  
Mean Temperature 81 °F -  
Max Temperature 94 °F 95 °F - ()
Min Temperature 68 °F 66 °F - ()
Cooling Degree Days 16    
Growing Degree Days 31 (Base 50)    
Moisture  
Dew Point 33 °F    
Average Humidity 18    
Maximum Humidity 35    
Minimum Humidity 4    
Precipitation  
Precipitation 0.00 in 0.00 in - ()
Sea Level Pressure  
Sea Level Pressure 29.90 in    
Wind  
Wind Speed 10 mph ()    
Max Wind Speed 20 mph    
Max Gust Speed 29 mph    
Visibility 6.1 miles    
Events      
T = Trace of Precipitation, MM = Missing Value Source: Averaged Metar Reports

Daily Weather History Graph

Daily Weather History Graph

Search for Another Location

Airport or City:

Trip Planner

Search our weather history database for the weather conditions in past years. The results will help you decide how hot, cold, wet, or windy it might be!

Date:

Astronomy

Jun. 10, 2014 Rise Set
Actual Time 6:23 AM WEST 8:30 PM WEST
Civil Twilight 5:55 AM WEST 8:58 PM WEST
Nautical Twilight 5:22 AM WEST 9:32 PM WEST
Astronomical Twilight 4:46 AM WEST 10:08 PM WEST
Moon 5:50 PM WEST (6/10) 4:08 AM WEST (6/10)
Length of Visible Light 15h 02m
Length of Day
14h 06m
Waxing Gibbous, 91% of the Moon is Illuminated
Jun 10
Waxing Gibbous
Jun 13
Full
Jun 19
Last Quarter
Jun 27
New
Jul 5
First Quarter

Hourly Weather History & Observations

Time (WEST) Temp. Dew Point Humidity Pressure Visibility Wind Dir Wind Speed Gust Speed Precip Events Conditions
12:00 AM 75.2 °F 41.0 °F 29% 29.95 in 6.2 mi WNW 13.8 mph - N/A   Partly Cloudy
1:00 AM 74 °F 39 °F 18%  in 12 mi WSW 10.4 mph - -   Scattered Clouds
1:00 AM 73.4 °F 39.2 °F 29% 29.95 in 6.2 mi WSW 10.4 mph - N/A   Partly Cloudy
2:00 AM 73.4 °F 39.2 °F 29% 29.92 in 6.2 mi WSW 11.5 mph - N/A   Partly Cloudy
3:00 AM 73.4 °F 39.2 °F 29% 29.92 in - West 11.5 mph - N/A   Unknown
4:00 AM 72 °F 40 °F 21%  in 12 mi West 12.7 mph - -  
4:00 AM 71.6 °F 41.0 °F 33% 29.92 in 6.2 mi West 13.8 mph - N/A   Partly Cloudy
5:00 AM 71.6 °F 37.4 °F 29% 29.89 in 6.2 mi West 9.2 mph - N/A   Partly Cloudy
6:00 AM 69.8 °F 37.4 °F 31% 29.92 in - West 5.8 mph - N/A   Clear
7:00 AM 69 °F 39 °F 22%  in 12 mi West 9.2 mph - -  
7:00 AM 68.0 °F 39.2 °F 35% 29.92 in - WNW 10.4 mph - N/A   Clear
8:00 AM 73.4 °F 39.2 °F 29% 29.95 in - WNW 9.2 mph - N/A   Clear
9:00 AM 78.8 °F 37.4 °F 23% 29.95 in - NNW 4.6 mph - N/A   Clear
10:00 AM 82 °F 32 °F 8%  in 6 mi NNW 6.9 mph - -  
11:00 AM 87.8 °F 28.4 °F 12% 29.92 in 5.0 mi NNE 15.0 mph - N/A   Unknown
12:00 PM 87.8 °F 26.6 °F 11% 29.92 in 5.0 mi NNE 17.3 mph - N/A   Unknown
1:00 PM 91 °F 27 °F 4%  in 5 mi ENE 13.8 mph - -   Scattered Clouds
1:00 PM 89.6 °F 26.6 °F 10% 29.92 in 5.0 mi ENE 15.0 mph - N/A   Partly Cloudy
2:00 PM 91.4 °F 24.8 °F 9% 29.89 in 5.0 mi ENE 9.2 mph - N/A   Partly Cloudy
3:00 PM 93.2 °F 21.2 °F 7% 29.86 in 5.0 mi Variable 2.3 mph - N/A   Scattered Clouds
4:00 PM 94 °F 20 °F 4%  in 5 mi North 5.8 mph - -   Partly Cloudy
4:00 PM 93.2 °F 21.2 °F 7% 29.83 in 5.0 mi North 5.8 mph - N/A   Scattered Clouds
5:00 PM 93.2 °F 21.2 °F 7% 29.83 in 5.0 mi East 4.6 mph - N/A   Scattered Clouds
6:00 PM 93.2 °F 23.0 °F 8% 29.83 in 5.0 mi NNE 17.3 mph 28.8 mph N/A   Scattered Clouds
7:00 PM 91 °F 22 °F 4%  in 5 mi NNE 18.4 mph - -   Scattered Clouds
7:00 PM 91.4 °F 21.2 °F 8% 29.83 in 5.0 mi NNE 19.6 mph - N/A   Partly Cloudy
9:00 PM 82.4 °F 39.2 °F 21% 29.89 in 5.0 mi NNW 15.0 mph - N/A   Unknown
10:00 PM 81 °F 39 °F 13%  in 5 mi NNW 6.9 mph - -   Scattered Clouds
10:00 PM 80.6 °F 39.2 °F 23% 29.92 in 5.0 mi NNW 6.9 mph - N/A   Unknown
11:00 PM 80.6 °F 39.2 °F 23% 29.92 in 5.0 mi WNW 5.8 mph - N/A   Unknown